Погода в Кицбюэле

Австрия     47°29′55″N   12°23′08″E
темп.,
°C
ветер,
м/с
пор.,
м/с
влажн.,
%
обл.,
%
осадки,
мм/ч
давл.,
гПа
погр.,
м
16 мая, вс
вс1623:00+5с23100100 1.0 1008167
02:00+2вюв1199100 12.5 1011186
05:00+2ю1299100 3.1 101270
08:00+5ю119397 3.1 1011189
11:00+11ссз115997 0.1 10081340
14:00+14вюв125163 0.3 10051528
17:00+10с2387100 1.4 1005297
20:00+7с1195100 3.2 100726
17 мая, пн
пн1723:00+6сз1298100 1.6 100752
02:00+5всв1198100 7.3 100838
05:00+4з1195100 3.9 101050
08:00+3юз1298100 6.0 1012327
11:00+6сз248189 0.9 1011871
14:00+7сз2580100 3.1 10111122
17:00+7зсз258182 2.9 1012771
20:00+5сз119194 4.9 101411
18 мая, вт
вт1823:00+4ююз119698 0.9 101641
02:00+3ю0195100 1.1 101712
05:00+1ю229622 0.1 101823
08:00+4ю018977 0.1 1017197
11:00+9ссз236712 0.6 10151115
14:00+6ссз2491100 3.3 1017671
17:00+5сз2396100 3.5 1017656
20:00+4ю2297100 5.8 1019139
19 мая, ср
ср1923:00+2ююз1299100 1.4 102151
02:00+2юз12100100 4.3 1022207
05:00+2зюз12100100 1.9 1022146
08:00+2з12100100 3.5 1023169
11:00+2сз12100100 0.8 1024308
14:00+4сз119898 2.1 1023302
17:00+7сз127539 0.6 1020903
20:00+4юв129869 3.4 1022106
20 мая, чт
чт2023:00+3ююв1197100 0.1 102319
02:00+1юз019899 0.3 102314
05:00+1ююв119879 0.1 102215
08:00+3сз0199100 1.3 1022412
11:00+3зсз1199100 3.4 1022326
14:00+3в1198100 6.5 1024252
17:00+5сз2392100 0.4 1023581
20:00+3з1299100 0.9 1026361